Dewpoint
-2 -2 -3 -3 -3 -4 -6 -8 -9 -10 -11 -13 -15 -18 -20 -22 -23 -25 -26 -26 -26 -26 -26 -26 -25 -25 -24 -24 -23 -23 -22 -21 -20 -20 -17 -13 -15 -22 -23 -23 -25 -26 -27
-3 -3 -4 -4 -4 -4 -7 -10 -11 -11 -12 -14 -15 -18 -21 -23 -24 -26 -26 -27 -26 -26 -25 -24 -24 -23 -23 -23 -22 -22 -21 -21 -21 -21 -18 -9 -14 -19 -22 -21 -24 -24 -26
-3 -3 -4 -4 -5 -5 -7 -10 -12 -12 -13 -15 -16 -18 -21 -23 -25 -26 -26 -26 -26 -25 -24 -23 -23 -22 -22 -21 -21 -21 -21 -21 -21 -22 -22 -22 -18 -23 -20 -20 -23 -24 -25
-4 -4 -5 -6 -6 -7 -8 -11 -12 -13 -14 -15 -17 -18 -20 -23 -25 -26 -26 -25 -24 -24 -23 -22 -22 -21 -21 -20 -20 -20 -20 -20 -21 -21 -22 -23 -23 -24 -23 -22 -24 -24 -25
-5 -5 -5 -6 -7 -7 -8 -11 -13 -13 -14 -16 -17 -19 -21 -23 -25 -26 -26 -25 -23 -22 -22 -21 -21 -20 -20 -19 -19 -19 -20 -20 -21 -22 -23 -24 -24 -25 -24 -24 -24 -25 -26
-6 -6 -6 -6 -7 -8 -9 -12 -13 -14 -16 -17 -19 -20 -22 -24 -25 -26 -25 -24 -23 -22 -21 -20 -20 -19 -18 -18 -18 -19 -20 -20 -21 -23 -24 -25 -25 -26 -25 -24 -25 -26 -27
-7 -7 -7 -7 -7 -8 -9 -11 -13 -15 -15 -16 -16 -17 -20 -23 -25 -25 -25 -24 -23 -22 -21 -20 -19 -18 -17 -17 -18 -18 -19 -21 -22 -23 -24 -25 -26 -26 -25 -24 -24 -22 -25
-9 -8 -8 -8 -8 -9 -9 -11 -13 -13 -13 -13 -14 -14 -16 -20 -23 -24 -24 -24 -23 -21 -20 -19 -18 -17 -17 -17 -17 -18 -20 -21 -23 -24 -25 -26 -26 -25 -24 -22 -21 -21 -22
-11 -10 -9 -9 -9 -10 -10 -11 -12 -12 -13 -13 -13 -14 -17 -18 -19 -20 -22 -22 -21 -21 -20 -18 -17 -16 -16 -16 -17 -19 -21 -23 -24 -25 -26 -26 -26 -26 -25 -23 -21 -19 -16
-12 -12 -11 -11 -11 -11 -11 -12 -12 -13 -13 -14 -14 -15 -15 -14 -15 -18 -21 -20 -20 -20 -19 -17 -16 -15 -15 -15 -18 -20 -23 -24 -25 -26 -26 -27 -27 -26 -26 -24 -23 -21 -18
-12 -13 -13 -13 -13 -13 -13 -13 -14 -14 -14 -13 -13 -13 -14 -14 -16 -17 -17 -18 -18 -19 -19 -17 -15 -15 -14 -17 -20 -23 -24 -25 -26 -27 -27 -28 -27 -26 -26 -25 -24 -23 -21
-11 -12 -13 -13 -13 -13 -13 -13 -13 -14 -14 -14 -13 -13 -14 -14 -15 -15 -16 -17 -18 -18 -16 -15 -15 -14 -17 -20 -23 -24 -26 -27 -27 -28 -28 -28 -27 -26 -26 -25 -24 -23 -22
-12 -12 -12 -12 -12 -12 -12 -12 -13 -13 -13 -14 -15 -15 -16 -17 -17 -17 -17 -17 -16 -15 -15 -14 -14 -18 -21 -23 -24 -26 -27 -27 -28 -28 -28 -27 -26 -26 -26 -25 -23 -23 -22
-11 -11 -11 -11 -12 -13 -13 -14 -14 -14 -14 -14 -15 -16 -16 -16 -16 -15 -15 -15 -15 -14 -14 -16 -20 -22 -23 -24 -25 -26 -27 -28 -28 -28 -27 -26 -26 -25 -25 -24 -23 -22 -21
-13 -13 -13 -13 -13 -13 -12 -12 -12 -12 -12 -13 -13 -14 -14 -14 -14 -14 -14 -14 -14 -15 -19 -20 -22 -23 -24 -25 -26 -27 -28 -29 -29 -28 -27 -27 -27 -26 -25 -22 -22 -19 -16
-14 -14 -14 -14 -14 -13 -13 -13 -13 -13 -13 -13 -13 -13 -13 -13 -13 -13 -13 -14 -16 -18 -20 -22 -23 -23 -25 -26 -27 -21 -25 -28 -27 -27 -25 -23 -21 -20 -15 -14 -13 -12 -13
-15 -15 -15 -15 -15 -15 -15 -14 -14 -14 -13 -13 -13 -13 -13 -13 -13 -13 -14 -13 -14 -14 -17 -21 -23 -24 -26 -27 -28 -18 -15 -15 -15 -16 -16 -17 -17 -15 -15 -15 -14 -14 -13
-15 -15 -16 -16 -16 -16 -15 -15 -15 -15 -15 -15 -15 -15 -15 -15 -15 -15 -15 -18 -24 -25 -25 -24 -24 -24 -25 -26 -26 -18 -15 -15 -15 -15 -15 -15 -15 -15 -15 -16 -16 -17 -19
-17 -17 -16 -16 -16 -16 -16 -16 -16 -16 -16 -16 -16 -16 -16 -17 -17 -18 -19 -20 -21 -21 -21 -22 -23 -24 -24 -24 -22 -17 -16 -16 -16 -15 -15 -15 -15 -15 -15 -15 -15 -15 -16
-19 -19 -18 -18 -19 -19 -19 -18 -18 -18 -19 -18 -17 -17 -17 -18 -19 -19 -19 -19 -19 -19 -20 -20 -21 -21 -22 -23 -22 -16 -16 -16 -16 -16 -16 -16 -15 -15 -15 -15 -16 -17 -17
-21 -21 -22 -22 -21 -22 -22 -21 -20 -21 -21 -20 -19 -19 -18 -18 -19 -19 -19 -19 -20 -19 -19 -19 -20 -20 -21 -21 -19 -17 -16 -16 -16 -16 -16 -16 -16 -15 -15 -14 -14 -14 -15
-21 -23 -21 -21 -22 -23 -23 -20 -19 -18 -19 -21 -22 -22 -22 -20 -20 -19 -19 -19 -19 -20 -20 -19 -19 -20 -20 -21 -19 -18 -16 -16 -16 -17 -17 -17 -16 -16 -16 -15 -15 -15 -14
-22 -25 -20 -21 -22 -24 -24 -21 -19 -20 -21 -23 -25 -26 -24 -23 -19 -19 -20 -19 -19 -19 -20 -20 -19 -19 -19 -20 -21 -18 -17 -16 -16 -16 -16 -16 -15 -15 -15 -15 -14 -14 -14
-23 -22 -21 -21 -23 -25 -25 -24 -23 -23 -23 -22 -22 -20 -21 -21 -21 -20 -20 -20 -20 -20 -19 -20 -20 -20 -20 -20 -20 -20 -20 -19 -17 -16 -16 -16 -15 -15 -15 -15 -15 -15 -15
-22 -21 -22 -23 -24 -24 -24 -25 -23 -24 -24 -23 -20 -19 -20 -21 -21 -20 -21 -20 -21 -20 -20 -21 -21 -21 -21 -21 -21 -19 -18 -19 -20 -21 -22 -20 -18 -17 -17 -17 -17 -19 -23
-21 -23 -23 -23 -24 -24 -24 -25 -24 -24 -23 -24 -24 -20 -20 -20 -20 -20 -20 -21 -19 -18 -18 -18 -18 -19 -18 -19 -18 -18 -18 -17 -17 -17 -18 -19 -23 -23 -24 -24 -24 -22 -20
Wind_Speed
39 40 39 38 36 36 37 37 36 34 34 34 34 32 31 29 27 25 23 22 21 19 17 16 16 15 14 14 13 12 12 13 12 12 12 11 8 6 7 9 10 11 14
38 40 41 40 39 39 38 37 36 36 35 33 33 32 32 29 27 26 25 23 21 20 18 15 15 14 13 13 13 12 12 13 11 8 9 8 5 2 2 4 7 9 12
47 46 46 44 42 41 39 38 37 35 33 33 33 33 32 31 30 28 26 24 22 20 18 17 15 14 12 11 10 10 9 9 10 9 6 6 5 2 4 3 6 10 12
45 48 48 45 43 40 37 36 35 34 33 33 34 34 34 33 31 29 27 26 23 21 19 17 16 14 12 11 9 8 6 6 6 6 5 4 4 4 4 5 7 12 13
45 46 48 45 40 37 36 35 34 34 34 33 31 31 31 30 31 30 29 27 25 22 20 18 15 13 11 9 7 5 4 4 2 2 2 1 1 3 5 9 10 15 15
39 43 45 42 40 37 35 34 34 34 33 32 31 30 30 31 32 32 31 28 26 24 21 18 15 13 10 8 6 5 4 3 2 1 2 3 4 7 9 14 20 22 24
35 38 40 41 40 38 34 32 33 32 31 31 29 28 27 29 31 31 31 30 28 25 22 18 16 14 11 9 7 6 5 4 4 5 6 7 9 11 13 16 20 25 29
28 34 36 38 36 36 35 35 33 31 29 29 28 27 26 27 28 28 28 27 25 24 22 20 18 15 13 10 8 7 7 7 7 8 9 10 12 14 16 18 20 25 28
24 28 30 32 31 32 32 31 30 30 30 30 28 27 26 26 26 26 26 26 26 25 23 21 19 16 13 11 10 10 10 10 10 11 13 14 15 17 19 20 21 22 22
16 20 22 25 26 25 24 24 24 25 25 25 25 26 26 26 25 26 27 27 26 24 23 21 18 16 15 13 12 12 12 13 14 15 17 18 19 20 22 23 24 25 27
12 14 17 19 18 18 18 18 19 20 21 21 22 24 25 24 24 24 24 24 24 23 22 20 19 18 16 16 15 15 16 16 18 19 20 21 22 23 25 26 27 28 28
15 13 15 16 17 16 14 14 14 15 16 19 20 21 22 23 24 24 25 25 24 23 22 22 21 20 19 18 18 18 19 21 22 22 24 24 25 27 28 28 29 29 29
22 21 17 15 14 14 15 14 12 11 12 14 16 18 20 22 23 23 23 23 23 23 23 22 22 21 20 20 21 22 24 25 25 26 27 28 28 30 30 30 30 30 29
24 20 15 13 11 11 11 11 10 9 10 11 13 14 16 17 18 19 20 21 22 23 23 23 23 22 23 24 25 26 26 27 28 28 29 30 30 31 30 30 30 28 28
26 24 22 19 16 10 2 3 6 8 9 10 11 12 13 16 17 19 20 21 22 23 23 24 24 25 26 27 28 29 29 30 30 30 30 31 30 30 29 28 27 23 23
23 20 17 16 14 12 9 6 4 6 10 12 13 14 16 18 19 21 22 23 23 24 25 27 28 29 30 30 29 27 31 31 31 31 30 29 28 27 24 24 26 28 30
20 17 16 16 15 16 15 14 13 13 14 15 16 18 20 22 23 25 26 28 28 29 31 33 34 35 35 33 31 28 28 31 34 34 32 31 30 24 23 24 24 26 28
19 19 19 20 20 17 15 16 16 16 17 18 19 21 23 27 28 30 32 33 34 35 36 37 38 38 38 35 32 29 30 34 36 36 36 35 34 33 29 30 32 33 32
20 20 20 20 19 17 17 17 18 18 18 19 20 20 22 25 27 29 32 33 34 36 37 38 38 39 40 37 34 30 33 36 37 35 34 35 35 33 28 30 32 33 33
20 21 21 21 21 20 20 18 19 20 21 20 21 21 22 24 25 26 28 29 31 35 36 38 38 39 39 37 33 28 31 36 36 36 36 34 33 30 28 29 31 33 33
23 22 22 22 21 22 23 23 23 24 24 23 23 23 24 25 26 27 26 27 28 29 32 36 37 37 37 36 31 28 30 34 33 33 32 33 29 29 30 31 33 34 31
25 25 25 26 26 25 24 24 24 22 22 23 25 27 27 26 27 26 26 26 28 29 30 33 35 36 36 35 32 30 31 33 35 38 37 36 31 30 30 30 31 32 31
28 30 22 27 26 27 25 26 24 25 27 28 30 30 31 30 28 28 29 29 29 31 31 32 34 35 34 35 32 29 31 33 35 39 38 34 31 30 31 31 32 31 31
30 22 22 28 32 28 25 24 24 27 29 30 28 27 28 29 29 29 30 30 30 31 31 31 33 33 31 31 30 30 29 31 34 35 36 37 36 33 33 32 29 29 29
27 20 26 28 29 27 26 24 25 27 26 28 26 23 25 26 26 26 26 26 27 27 27 27 26 25 25 22 16 16 18 22 26 27 32 38 41 40 39 38 37 37 36
24 30 25 26 27 25 26 26 24 25 25 27 26 23 23 25 26 27 28 25 25 26 27 30 33 36 35 31 30 26 24 26 27 26 25 24 24 25 24 24 25 26 28
Wind_Direction
199 200 198 200 200 201 201 199 197 197 197 192 188 186 184 183 181 181 180 179 178 176 176 176 172 169 171 166 159 153 145 141 141 140 125 113 102 70 61 58 44 30 26
199 199 199 201 203 202 202 200 200 200 198 198 194 192 188 183 184 182 181 181 181 180 180 181 178 175 177 170 167 161 157 150 159 165 146 141 138 20 49 31 16 13 8
200 200 199 201 201 202 201 201 201 202 200 198 195 191 188 185 183 182 184 182 183 183 182 181 181 181 178 178 174 170 168 165 152 164 179 163 170 194 205 296 330 340 342
201 201 200 199 201 200 201 201 202 202 200 199 199 198 194 189 188 188 186 184 182 184 183 184 182 181 179 178 175 172 171 164 159 152 150 157 164 160 200 244 279 307 318
196 195 198 202 201 202 201 202 202 201 200 200 202 201 198 195 191 187 187 186 184 185 184 184 184 182 180 176 169 164 156 152 148 138 143 165 251 282 273 287 286 300 309
189 195 199 200 200 200 201 201 200 199 199 198 200 203 202 198 194 191 190 188 188 187 187 187 185 183 183 182 181 182 182 191 220 254 271 287 291 294 293 296 303 306 308
174 178 185 191 195 194 196 199 200 199 201 203 203 203 205 206 203 198 194 192 192 192 192 190 190 190 192 197 204 212 220 234 249 265 280 286 286 285 285 285 292 297 302
166 178 185 191 193 194 196 199 199 200 199 200 205 207 210 211 207 205 201 199 199 198 197 197 197 200 203 208 217 225 233 243 254 265 270 277 280 280 280 281 284 290 292
154 171 184 191 193 196 198 202 202 204 208 210 212 211 208 207 206 206 205 202 202 203 204 204 206 208 214 222 230 237 244 255 263 269 274 276 274 273 272 272 273 276 281
143 166 177 183 190 194 196 199 207 210 211 211 211 209 206 208 213 213 211 210 211 212 211 213 216 220 227 233 238 244 252 258 264 269 271 274 273 271 270 270 270 269 271
119 148 166 176 184 186 193 200 206 207 205 205 207 210 210 212 214 215 216 219 220 222 223 224 226 231 237 241 244 250 257 264 267 271 272 273 272 270 269 268 267 266 266
88 124 150 166 170 178 186 194 197 203 206 209 209 211 213 213 216 220 222 224 226 227 228 231 235 239 243 247 251 257 263 267 270 271 271 272 270 268 267 266 265 264 265
73 86 110 127 146 159 171 180 188 201 214 222 223 223 223 222 223 225 226 227 228 231 234 238 243 246 249 253 257 262 264 268 271 271 270 270 267 267 266 265 265 264 266
56 59 67 76 96 122 149 170 186 204 224 236 239 237 237 235 232 232 233 236 239 240 243 245 248 251 253 257 262 266 269 271 271 270 268 267 266 266 265 264 264 266 269
41 45 47 47 47 46 37 215 215 224 231 241 249 251 252 252 249 247 246 247 248 250 252 254 255 258 261 264 267 270 272 271 269 267 266 266 264 264 265 265 267 270 273
18 14 10 2 359 356 350 341 309 264 253 250 250 255 257 260 259 259 260 259 260 262 264 264 266 266 266 268 270 270 274 271 268 266 264 262 263 262 258 258 259 266 274
4 2 360 353 343 337 332 323 313 302 288 277 269 269 269 268 265 265 268 268 270 270 266 265 266 267 268 269 268 265 261 265 269 270 270 271 272 266 266 264 259 256 253
351 346 341 338 334 330 322 311 305 301 297 293 288 283 279 276 274 272 270 269 268 266 266 265 265 266 266 268 268 264 260 258 257 258 262 266 268 268 265 267 269 270 268
334 331 327 324 321 321 322 316 310 306 300 296 295 296 293 286 280 275 273 271 270 269 268 267 267 265 265 265 266 261 255 255 256 257 259 259 259 260 258 260 264 267 271
323 322 321 315 311 310 308 303 300 300 298 295 290 287 287 287 289 289 287 283 276 272 270 269 267 267 268 268 264 257 253 253 255 258 257 253 255 262 259 258 261 265 269
318 320 317 318 316 312 308 304 302 301 302 298 294 292 291 290 291 291 290 289 286 280 274 271 268 267 267 268 262 255 253 255 257 258 256 255 255 254 254 255 260 263 270
318 321 316 309 309 307 308 303 300 302 297 297 296 296 295 293 294 291 288 288 287 286 282 277 272 270 269 267 263 257 253 254 255 257 258 257 258 257 256 256 257 260 264
319 321 304 306 311 311 305 295 290 293 293 295 295 294 291 285 284 286 288 285 284 283 284 283 281 278 275 273 270 262 257 254 252 255 258 260 260 257 257 256 257 261 260
322 319 305 310 315 314 311 301 301 297 293 290 287 290 292 291 286 281 283 283 282 283 284 284 282 282 281 277 274 270 263 255 248 249 249 250 251 255 258 260 253 248 254
320 316 309 311 311 313 313 310 305 309 300 293 291 294 297 294 291 288 287 285 283 282 282 283 284 284 283 284 284 271 266 263 260 258 252 250 250 251 251 252 255 260 262
316 312 308 309 311 309 310 312 310 310 303 298 287 284 291 289 288 288 289 283 275 277 273 271 272 280 283 288 278 262 259 260 265 255 256 254 248 248 251 251 252 254 258
Height
1461 1464 1471 1476 1482 1486 1489 1493 1496 1501 1504 1507 1511 1515 1517 1521 1526 1530 1533 1536 1539 1541 1543 1545 1547 1549 1551 1553 1555 1556 1558 1559 1560 1561 1564 1565 1567 1567 1567 1568 1568 1568 1568
1457 1461 1466 1471 1476 1480 1485 1490 1494 1498 1502 1507 1511 1514 1516 1520 1525 1528 1531 1535 1538 1540 1542 1544 1546 1549 1551 1552 1554 1557 1558 1559 1560 1561 1563 1565 1568 1567 1566 1567 1567 1567 1567
1445 1453 1458 1464 1469 1475 1481 1487 1492 1496 1501 1505 1509 1512 1515 1518 1521 1525 1529 1533 1536 1538 1541 1543 1545 1547 1549 1551 1553 1555 1557 1557 1559 1560 1561 1562 1564 1565 1565 1565 1565 1565 1565
1440 1445 1452 1459 1466 1473 1480 1485 1490 1495 1499 1503 1506 1509 1511 1514 1519 1523 1527 1530 1533 1536 1539 1541 1544 1546 1548 1550 1552 1553 1555 1556 1557 1558 1559 1559 1561 1562 1564 1564 1563 1564 1563
1432 1438 1446 1456 1465 1473 1478 1484 1488 1493 1496 1501 1505 1508 1512 1515 1517 1520 1524 1528 1531 1535 1537 1540 1542 1544 1546 1549 1550 1552 1553 1554 1555 1556 1557 1558 1559 1560 1561 1560 1560 1561 1560
1429 1435 1443 1452 1462 1470 1477 1482 1486 1490 1495 1498 1502 1507 1510 1512 1515 1517 1521 1525 1528 1532 1535 1537 1540 1542 1544 1546 1548 1550 1551 1553 1554 1554 1555 1556 1557 1557 1557 1556 1554 1554 1553
1428 1436 1443 1450 1456 1465 1474 1480 1485 1489 1494 1497 1501 1505 1509 1512 1515 1517 1518 1521 1525 1529 1532 1535 1537 1539 1541 1543 1545 1547 1548 1550 1552 1553 1553 1554 1554 1554 1554 1554 1553 1549 1547
1434 1438 1444 1452 1459 1466 1472 1478 1483 1488 1493 1497 1500 1504 1507 1511 1514 1517 1519 1521 1524 1527 1530 1532 1534 1536 1538 1540 1542 1544 1546 1548 1548 1549 1550 1551 1551 1550 1550 1550 1549 1546 1545
1440 1444 1448 1455 1463 1468 1473 1479 1484 1487 1491 1495 1499 1502 1505 1509 1512 1514 1517 1519 1521 1524 1527 1529 1531 1533 1535 1537 1539 1540 1542 1543 1544 1544 1545 1546 1546 1546 1546 1546 1546 1545 1541
1449 1451 1455 1459 1465 1471 1477 1481 1484 1487 1490 1493 1497 1501 1504 1507 1510 1512 1514 1516 1519 1522 1524 1526 1528 1530 1531 1533 1534 1536 1537 1538 1539 1539 1539 1539 1540 1540 1541 1541 1541 1540 1538
1457 1458 1462 1465 1469 1475 1479 1482 1484 1487 1489 1493 1496 1500 1502 1505 1508 1510 1512 1515 1517 1518 1520 1522 1524 1526 1527 1528 1530 1531 1531 1532 1533 1533 1533 1533 1533 1533 1534 1534 1533 1533 1532
1464 1465 1467 1470 1472 1476 1480 1482 1484 1487 1489 1494 1496 1499 1502 1503 1506 1508 1510 1512 1513 1515 1516 1518 1520 1521 1522 1523 1524 1525 1526 1526 1527 1527 1526 1526 1526 1525 1526 1526 1526 1525 1525
1472 1472 1473 1475 1477 1479 1481 1484 1486 1487 1490 1493 1495 1497 1500 1501 1503 1505 1507 1509 1510 1511 1512 1513 1514 1515 1516 1517 1519 1519 1520 1520 1519 1519 1519 1518 1518 1517 1518 1518 1518 1517 1517
1478 1478 1480 1481 1482 1483 1484 1485 1486 1488 1489 1492 1493 1495 1497 1499 1500 1501 1503 1504 1505 1505 1506 1507 1508 1510 1510 1511 1512 1512 1512 1512 1511 1511 1510 1510 1509 1509 1510 1510 1510 1510 1509
1486 1486 1487 1486 1486 1486 1486 1486 1486 1487 1488 1490 1491 1491 1493 1495 1496 1497 1498 1498 1498 1499 1500 1501 1502 1503 1503 1504 1504 1504 1504 1503 1503 1502 1502 1501 1501 1501 1501 1501 1502 1503 1503
1490 1489 1489 1489 1488 1488 1487 1486 1485 1485 1485 1485 1485 1486 1488 1490 1491 1492 1492 1492 1492 1493 1494 1494 1494 1495 1495 1496 1496 1496 1494 1494 1494 1493 1493 1493 1493 1493 1495 1496 1497 1498 1495
1493 1492 1491 1489 1488 1486 1485 1484 1483 1482 1482 1482 1482 1483 1483 1484 1484 1484 1484 1484 1484 1485 1485 1485 1485 1485 1485 1487 1487 1488 1487 1486 1485 1484 1484 1483 1483 1485 1485 1485 1487 1488 1487
1492 1491 1489 1487 1486 1484 1483 1482 1480 1479 1478 1478 1478 1478 1478 1478 1478 1477 1476 1476 1476 1475 1475 1474 1475 1475 1475 1477 1478 1479 1478 1477 1477 1476 1475 1474 1475 1476 1477 1477 1476 1475 1475
1491 1489 1487 1485 1483 1481 1479 1477 1476 1475 1474 1474 1473 1473 1472 1471 1470 1468 1467 1466 1465 1464 1464 1464 1464 1464 1464 1467 1467 1469 1468 1467 1465 1466 1466 1466 1466 1466 1469 1469 1467 1465 1465
1487 1484 1482 1480 1478 1477 1475 1473 1471 1470 1469 1469 1467 1466 1465 1463 1461 1459 1457 1456 1455 1453 1453 1452 1452 1452 1452 1454 1455 1458 1457 1455 1455 1455 1455 1456 1457 1457 1459 1459 1458 1455 1455
1483 1480 1476 1474 1471 1469 1466 1464 1462 1461 1460 1458 1456 1454 1454 1452 1451 1450 1448 1447 1446 1444 1442 1442 1442 1441 1441 1442 1444 1447 1447 1446 1446 1445 1444 1444 1447 1448 1450 1451 1449 1447 1449
1477 1474 1471 1468 1465 1463 1460 1457 1454 1453 1450 1448 1446 1445 1444 1443 1442 1440 1440 1438 1437 1435 1433 1432 1431 1430 1430 1431 1432 1434 1436 1437 1436 1434 1434 1435 1437 1438 1439 1440 1440 1441 1441
1473 1469 1466 1462 1460 1457 1454 1450 1448 1446 1443 1441 1439 1437 1435 1433 1433 1432 1430 1429 1428 1426 1424 1423 1420 1419 1420 1419 1420 1421 1424 1425 1425 1424 1424 1426 1427 1428 1428 1429 1430 1431 1430
1467 1463 1460 1456 1452 1450 1447 1444 1441 1438 1435 1432 1430 1428 1426 1424 1423 1423 1421 1420 1418 1417 1415 1413 1411 1410 1409 1409 1408 1409 1410 1411 1412 1413 1413 1413 1414 1417 1417 1419 1419 1420 1420
1462 1458 1455 1450 1446 1442 1439 1436 1434 1431 1427 1424 1422 1420 1418 1416 1415 1413 1412 1410 1409 1407 1406 1404 1403 1402 1400 1400 1400 1400 1399 1399 1400 1401 1402 1402 1404 1405 1407 1408 1409 1411 1411
1455 1451 1448 1444 1439 1436 1432 1429 1426 1423 1419 1415 1413 1413 1411 1410 1408 1405 1403 1403 1403 1402 1400 1399 1396 1394 1393 1394 1393 1394 1394 1394 1393 1392 1392 1392 1394 1395 1397 1398 1399 1401 1402